sat.trackr.live / text

‹ back to catalog

STARLINK-32701

NORAD 62510 · 2025-003Z

PAYLOAD ACTIVE UNKNOWN

§ Identity

Operator
Country
US
Launch date
2025-01-06
Launch site
AFETR
Launch vehicle
Mass (kg)
RCS (m²)

Purposes: comms

External: N2YO · Heavens-Above · Gunter

§ Orbital elements

Epoch: 2026-09-21T11:18:46.436256Z

Period
94.27 min
Inclination
43.0014°
Eccentricity
0.0001363
Mean motion
15.27596728 rev/d
Perigee alt
482.1 km
Apogee alt
483.9 km
Semi-major
6,861.1 km
B*
5.3087e-4
RAAN
263.3154°
Arg perigee
278.9976°
Mean anomaly
81.0721°
Rev number
9,649

§ Raw data

STARLINK-327011 62510U 25003Z   26264.47137079  .00014382  00000+0  53087-3 0  99952 62510  43.0014 263.3154 0001363 278.9976  81.0721 15.27596728 96492

JSON: /api/v1/satellites/62510 · /tle

For live sub-satellite position, see the globe view (requires WebGL).

§ Visibility from observer

Set your observer location to see the next 7 days of passes ≥ 10°. The values pass through the URL so the page stays shareable.

No JS? Fill the form by hand. The geolocation button needs JavaScript.